Location: Hurstbourne Priors
(51.2000°N, 1.3667°W)
Time: 19:05:05
(UTC+00:00)

Transit 4A - Pass Details

Date: 20 April 2021
Orbit: 870 x 974 km, 66.8° (Epoch: 09 May)

Event Time Altitude Azimuth Distance (km) Brightness Sun altitude
Rises 06:17:59 0° 320° (NW) 3,548 10.6 11.1°
Reaches altitude 10° 06:20:47 10° 329° (NNW) 2,588 10.0 11.6°
Maximum altitude 06:26:11 34° 34° (NE) 1,430 9.6 12.4°
Drops below altitude 10° 06:31:28 10° 98° (E) 2,531 12.5 13.3°
Sets 06:34:11 0° 108° (ESE) 3,460 12.3 13.7°
